Weather History for Peoria, IL

Change the Weather History Date:

Tuesday, February 12, 2013

  Actual Average Record
Temperature  
Mean Temperature 31 °F 28 °F  
Max Temperature 39 °F 37 °F 69 °F (1938)
Min Temperature 23 °F 20 °F -16 °F (1905)
Degree Days  
Heating Degree Days 34 37  
Month to date heating degree days 422 456  
Since 1 July heating degree days 3709 3977  
Cooling Degree Days 0 0  
Month to date cooling degree days 0 0  
Year to date cooling degree days 0 0  
Moisture  
Dew Point 22 °F    
Average Humidity 71    
Maximum Humidity 88    
Minimum Humidity 54    
Precipitation  
Precipitation 0.00 in 0.07 in 1.08 in (1884)
Month to date precipitation 1.34 0.68  
Year to date precipitation 5.17 2.46  
Snow  
Snow 0.00 in 0.30 in 8.00 in (1896)
Month to date snowfall 0.9 2.9  
Since 1 July snowfall 4.5 18.0  
Snow Depth 0.00 in    
Sea Level Pressure  
Sea Level Pressure 30.08 in    
Wind  
Wind Speed 5 mph (West)    
Max Wind Speed 13 mph    
Max Gust Speed 15 mph    
Visibility 10 miles    
Events      
T = Trace of Precipitation, MM = Missing Value Source: NWS Daily Summary

Daily Weather History Graph

Daily Weather History Graph

Search for Another Location

Airport:

Trip Planner

Search our weather history database for the weather conditions in past years. The results will help you decide how hot, cold, wet, or windy it might be!

Date:

Astronomy

Feb. 12, 2013 Rise Set
Actual Time 6:56 AM CST 5:30 PM CST
Civil Twilight 6:27 AM CST 5:58 PM CST
Nautical Twilight 5:55 AM CST 6:30 PM CST
Astronomical Twilight 5:24 AM CST 7:02 PM CST
Moon 7:52 AM CST (2/12) 8:32 PM CST (2/12)
Length of Visible Light 11h 30m
Length of Day
10h 34m
Waxing Crescent, 7% of the Moon is Illuminated
Feb 12
Waxing Crescent
Feb 17
First Quarter
Feb 25
Full
Mar 4
Last Quarter
Mar 11
New

Hourly Weather History & Observations

Time (CST) Temp. Windchill Dew Point Humidity Pressure Visibility Wind Dir Wind Speed Gust Speed Precip Events Conditions
12:54 AM 26.1 °F 20.5 °F 21.0 °F 81% 30.14 in 10.0 mi West 4.6 mph - N/A   Clear
1:54 AM 26.1 °F 19.4 °F 21.0 °F 81% 30.15 in 10.0 mi West 5.8 mph - N/A   Clear
2:54 AM 26.1 °F 20.5 °F 21.0 °F 81% 30.14 in 10.0 mi WNW 4.6 mph - N/A   Clear
3:54 AM 25.0 °F 19.3 °F 21.0 °F 85% 30.14 in 10.0 mi West 4.6 mph - N/A   Clear
4:30 AM 24.1 °F - 19.9 °F 84% 30.12 in 10.0 mi Calm Calm - N/A   Mostly Cloudy
4:54 AM 25.0 °F 20.7 °F 21.9 °F 88% 30.14 in 9.0 mi West 3.5 mph - N/A   Overcast
5:13 AM 26.1 °F - 21.9 °F 84% 30.12 in 9.0 mi Calm Calm - N/A   Overcast
5:54 AM 26.1 °F 21.9 °F 21.9 °F 84% 30.14 in 9.0 mi West 3.5 mph - N/A   Overcast
6:54 AM 28.0 °F 21.7 °F 21.9 °F 78% 30.15 in 10.0 mi WNW 5.8 mph - N/A   Overcast
7:54 AM 28.0 °F 19.3 °F 21.9 °F 78% 30.15 in 10.0 mi NW 9.2 mph - N/A   Overcast
8:54 AM 28.0 °F 20.8 °F 21.9 °F 78% 30.16 in 10.0 mi NW 6.9 mph - N/A   Overcast
9:23 AM 28.9 °F 20.4 °F 21.9 °F 75% 30.14 in 10.0 mi West 9.2 mph - N/A   Overcast
9:54 AM 30.0 °F 21.7 °F 23.0 °F 75% 30.17 in 10.0 mi West 9.2 mph - N/A   Overcast
10:40 AM 32.0 °F 24.8 °F 23.0 °F 69% 30.10 in 10.0 mi NNW 8.1 mph - N/A   Scattered Clouds
10:54 AM 33.1 °F 27.7 °F 23.0 °F 66% 30.12 in 10.0 mi Variable 5.8 mph - N/A   Partly Cloudy
11:54 AM 34.0 °F 26.6 °F 23.0 °F 64% 30.12 in 10.0 mi NW 9.2 mph - N/A   Partly Cloudy
12:54 PM 35.1 °F 29.3 °F 24.1 °F 64% 30.09 in 10.0 mi West 6.9 mph - N/A   Partly Cloudy
1:54 PM 37.0 °F 31.0 °F 23.0 °F 57% 30.08 in 10.0 mi West 8.1 mph - N/A   Clear
2:54 PM 37.9 °F 33.5 °F 24.1 °F 57% 30.06 in 10.0 mi West 5.8 mph - N/A   Clear
3:54 PM 37.9 °F 33.5 °F 23.0 °F 55% 30.04 in 10.0 mi WSW 5.8 mph - N/A   Clear
4:54 PM 37.0 °F 32.4 °F 23.0 °F 57% 30.01 in 10.0 mi West 5.8 mph - N/A   Clear
5:54 PM 35.1 °F 32.2 °F 23.0 °F 61% 30.01 in 10.0 mi SW 3.5 mph - N/A   Clear
6:54 PM 33.1 °F 28.7 °F 23.0 °F 66% 30.01 in 10.0 mi SSW 4.6 mph - N/A   Clear
7:54 PM 30.0 °F 26.5 °F 23.0 °F 75% 29.99 in 10.0 mi SSW 3.5 mph - N/A   Clear
8:54 PM 27.0 °F 20.5 °F 21.9 °F 81% 29.98 in 9.0 mi South 5.8 mph - N/A   Clear
9:54 PM 28.9 °F - 24.1 °F 82% 29.98 in 8.0 mi Calm Calm - N/A   Clear
10:54 PM 27.0 °F - 23.0 °F 85% 29.97 in 7.0 mi Calm Calm - N/A   Clear
11:54 PM 25.0 °F - 21.9 °F 88% 29.96 in 7.0 mi Calm Calm - N/A   Clear